Anderson, SC

7:40 PM EDT on July 24, 2016 (GMT -0400)
Anderson Regional

Weather History for KAND - November, 2011

Change the Weather History Date:

Sunday, November 20, 2011

  Actual Average Record
Temperature  
Mean Temperature 56 °F -  
Max Temperature 62 °F 62 °F 78 °F (1979)
Min Temperature 51 °F 42 °F 19 °F (1951)
Degree Days  
Heating Degree Days 8    
Growing Degree Days 6 (Base 50)    
Moisture  
Dew Point 50 °F    
Average Humidity 80    
Maximum Humidity 94    
Minimum Humidity 54    
Precipitation  
Precipitation 0.01 in - - ()
Sea Level Pressure  
Sea Level Pressure 30.32 in    
Wind  
Wind Speed 1 mph (WNW)    
Max Wind Speed 5 mph    
Max Gust Speed -    
Visibility 8 miles    
Events Rain    
Averages and records for this station are not official NWS values.
T = Trace of Precipitation, MM = Missing Value Source: NWS Daily Summary

Daily Weather History Graph

Daily Weather History Graph

Search for Another Location

Airport or City:

Trip Planner

Search our weather history database for the weather conditions in past years. The results will help you decide how hot, cold, wet, or windy it might be!

Date:

Astronomy

Nov. 20, 2011 Rise Set
Actual Time 7:08 AM EST 5:23 PM EST
Civil Twilight 6:41 AM EST 5:50 PM EST
Nautical Twilight 6:11 AM EST 6:21 PM EST
Astronomical Twilight 5:41 AM EST 6:51 PM EST
Moon 1:48 AM EST (11/20) 2:01 PM EST (11/20)
Length of Visible Light 11h 08m
Length of Day
10h 14m
Waning Crescent, 27% of the Moon is Illuminated
Nov 20
Waning Crescent
Nov 25
New
Dec 2
First Quarter
Dec 10
Full
Dec 17
Last Quarter

Hourly Weather History & Observations

Time (EST) Temp. Dew Point Humidity Pressure Visibility Wind Dir Wind Speed Gust Speed Precip Events Conditions
12:56 AM 53.1 °F 37.0 °F 55% 30.34 in 10.0 mi NE 4.6 mph - N/A   Overcast
1:56 AM 53.6 °F 37.4 °F 54% 30.33 in 10.0 mi Calm Calm - N/A   Overcast
2:56 AM 53.1 °F 37.9 °F 57% 30.32 in 10.0 mi NNE 3.5 mph - N/A   Overcast
3:56 AM 53.1 °F 39.0 °F 59% 30.32 in 10.0 mi Calm Calm - N/A   Overcast
4:56 AM 53.1 °F 39.9 °F 61% 30.32 in 10.0 mi Calm Calm - N/A   Overcast
5:04 AM 53.6 °F 39.2 °F 58% 30.32 in 10.0 mi Calm Calm - N/A   Overcast
5:56 AM 53.1 °F 42.1 °F 66% 30.32 in 10.0 mi Calm Calm - N/A   Overcast
6:08 AM 53.6 °F 42.8 °F 67% 30.33 in 10.0 mi Calm Calm - N/A   Overcast
6:56 AM 53.1 °F 43.0 °F 69% 30.33 in 10.0 mi Calm Calm - N/A   Overcast
7:45 AM 53.6 °F 44.6 °F 72% 30.35 in 10.0 mi Calm Calm - N/A   Overcast
7:56 AM 53.1 °F 45.0 °F 74% 30.35 in 7.0 mi Calm Calm - 0.00 in Rain Light Rain
8:56 AM 51.1 °F 48.0 °F 89% 30.38 in 4.0 mi Calm Calm - 0.01 in Rain Light Rain
9:06 AM 51.8 °F 48.2 °F 88% 30.37 in 2.0 mi Calm Calm - 0.00 in Rain Light Rain
9:56 AM 52.0 °F 50.0 °F 93% 30.38 in 7.0 mi Calm Calm - 0.00 in   Overcast
10:05 AM 51.8 °F 50.0 °F 94% 30.38 in 7.0 mi Calm Calm - N/A   Overcast
10:33 AM 53.6 °F 51.8 °F 94% 30.37 in 7.0 mi Calm Calm - N/A   Overcast
10:56 AM 54.0 °F 52.0 °F 93% 30.37 in 9.0 mi Calm Calm - N/A   Overcast
11:56 AM 57.9 °F 53.1 °F 84% 30.35 in 10.0 mi Calm Calm - N/A   Overcast
12:56 PM 59.0 °F 54.0 °F 83% 30.32 in 10.0 mi Calm Calm - N/A   Overcast
1:56 PM 61.0 °F 54.0 °F 78% 30.30 in 10.0 mi Calm Calm - N/A   Overcast
2:45 PM 62.6 °F 55.4 °F 77% 30.29 in 10.0 mi NW 3.5 mph - N/A   Overcast
2:56 PM 62.6 °F 55.4 °F 77% 30.29 in 10.0 mi Calm Calm - N/A   Overcast
3:03 PM 62.6 °F 55.4 °F 77% 30.29 in 10.0 mi WNW 3.5 mph - N/A   Overcast
3:56 PM 61.0 °F 55.9 °F 83% 30.29 in 10.0 mi NW 3.5 mph - N/A   Overcast
4:49 PM 60.8 °F 55.4 °F 82% 30.29 in 7.0 mi WNW 4.6 mph - N/A   Overcast
4:56 PM 60.1 °F 55.0 °F 83% 30.29 in 8.0 mi WNW 4.6 mph - N/A   Overcast
5:41 PM 60.8 °F 55.4 °F 82% 30.29 in 9.0 mi Calm Calm - N/A   Mostly Cloudy
5:56 PM 59.0 °F 55.4 °F 88% 30.30 in 8.0 mi Calm Calm - N/A   Mostly Cloudy
6:56 PM 57.9 °F 55.0 °F 90% 30.31 in 8.0 mi SW 3.5 mph - N/A   Overcast
7:56 PM 57.0 °F 55.0 °F 93% 30.30 in 6.0 mi Calm Calm - N/A   Scattered Clouds
8:56 PM 55.9 °F 54.0 °F 93% 30.29 in 4.0 mi Calm Calm - N/A   Clear
9:56 PM 57.0 °F 55.0 °F 93% 30.28 in 4.0 mi Calm Calm - N/A   Partly Cloudy
10:45 PM 57.2 °F 55.4 °F 94% 30.28 in 4.0 mi SW 3.5 mph - N/A   Overcast
10:56 PM 57.0 °F 55.0 °F 93% 30.28 in 4.0 mi Calm Calm - N/A   Overcast
11:39 PM 57.2 °F 55.4 °F 94% 30.28 in 5.0 mi Calm Calm - N/A   Overcast
11:56 PM 57.9 °F 55.9 °F 93% 30.27 in 5.0 mi WSW 3.5 mph - N/A   Overcast